This is the latest recevied weather packets stored in our database for station/object VO2AGO. If no packets are shown the sender has not sent any weather packets the latest 10 day(s).
| Time | Temp. | Humidity | Pressure | Rain* | Wind** | Luminosity | Snow |
|---|---|---|---|---|---|---|---|
| 1778083099 | 4.44° C | - | - | - | 0 m/s | 927 W/m² | - |
| 1778082650 | 3.89° C | - | - | - | 0 m/s | 1027 W/m² | - |
| 1778082200 | 4.44° C | - | - | - | 0 m/s | 1327 W/m² | - |
| 1778081750 | 4.44° C | - | - | - | 0 m/s | 977 W/m² | - |
| 1778081299 | 5° C | - | - | - | 0 m/s | 1504 W/m² | - |
| 1778080849 | 3.89° C | - | - | - | 0 m/s | 1302 W/m² | - |
| 1778080399 | 3.33° C | - | - | - | 0 m/s | 1018 W/m² | - |
| 1778079950 | 4.44° C | - | - | - | 0 m/s | 1103 W/m² | - |
| 1778079500 | 6.11° C | - | - | - | 0 m/s | 1115 W/m² | - |
| 1778079050 | 5.56° C | 90% | 100.8 hPa | 0 mm | 0 m/s | 1692 W/m² | - |
| 1778078599 | 5° C | 87% | 100.8 hPa | 0 mm | 0 m/s | 1893 W/m² | - |
| 1778078149 | 5.56° C | - | - | - | 0 m/s | 1105 W/m² | - |
| 1778077700 | 4.44° C | 92% | 100.8 hPa | 0 mm | 0 m/s | 1550 W/m² | - |
| 1778077251 | 5° C | 92% | 100.8 hPa | 0 mm | 0 m/s | 1327 W/m² | - |
| 1778076830 | 3.89° C | - | - | - | 0 m/s | 1594 W/m² | - |
| 1778076351 | 5° C | 94% | 100.8 hPa | 0 mm | 0 m/s | 1770 W/m² | - |
| 1778075899 | 4.44° C | 95% | 100.8 hPa | 0 mm | 0 m/s | 1705 W/m² | - |
| 1778075449 | 3.89° C | 99% | 100.8 hPa | 0 mm | 0 m/s | 1986 W/m² | - |
| 1778075006 | 3.89° C | - | - | - | 0 m/s | 1577 W/m² | - |
| 1778074549 | 5° C | - | - | - | 0 m/s | 1338 W/m² | - |
| 1778074100 | 4.44° C | - | - | - | 0 m/s | 1299 W/m² | - |
| 1778073200 | 3.89° C | - | - | - | 0 m/s | 1210 W/m² | - |
| 1778072749 | 3.89° C | - | - | - | 0 m/s | 1212 W/m² | - |
| 1778072300 | 2.78° C | - | - | - | 0 m/s | 1184 W/m² | - |
| 1778071850 | 4.44° C | 93% | 100.8 hPa | 0 mm | 0 m/s | 1384 W/m² | - |
* Rain since midnight (hover to see other rain measurements)
** Current wind speed in m/s (hover to see current wind gust speed)